Tracking 17264 objects as of 1-September-2015
HD Live streaming from Space Station

ACRIMSAT

Track ACRIMSAT now!
10-day predictions
ACRIMSAT is classified as:


NORAD ID: 26033
Int'l Code: 1999-070B
Perigee: 675.2 km
Apogee: 713.0 km
Inclination: 97.8 °
Period: 98.5 minutes
Semi major axis: 7065 km
RCS: 0.514 m2 (medium)
Launch date: December 21, 1999
Source: United States (US)

Monitor total solar irradiance (TSI) with maximum precision; ascertain the extent of solar radiation variability.
Your satellite tracking list
Your tracking list is empty





NASA's NSSDC Master Catalog

Two Line Element Set (TLE):
1 26033U 99070B   15244.06165634  .00000158  00000-0  40310-4 0  9992
2 26033  97.8489  44.0012 0026744 251.0345 108.7958 14.61921024836538

Source of the keplerian elements: AFSPC

N2YO: 288